Location: Gökben Yaylas?
(36.8988°N, 29.6291°E)
Time: 11:13:05
(UTC+00:00)

Cosmos 1503 Rocket - Pass Details

Date: 15 May 2026
Orbit: 749 x 785 km, 74.0° (Epoch: 6 June)

Event Time Altitude Azimuth Distance (km) Brightness Sun altitude
Rises 20:05:59 0° 342° (NNW) 3,213 8.4 -28.2°
Reaches altitude 10° 20:08:22 10° 342° (NNW) 2,281 7.4 -28.4°
Enters shadow 20:12:49 67° 346° (NNW) 815 4.2 -28.8°
